| time (UTC) | temp F | wind direction | speed MPH | gust MPH | rain 1hr in | rain 24hr in | rain mn in | humidity % | barometer mb |
| 20260903005204 | 68 | 205 | 5.0 | 11.0 | 0.00 | 0.00 | 0.00 | 77 | 1017.0 |
| 20260903004704 | 68 | 192 | 6.0 | 12.0 | 0.00 | 0.00 | 0.00 | 78 | 1017.1 |
| 20260903004205 | 68 | 214 | 6.0 | 12.0 | 0.00 | 0.00 | 0.00 | 77 | 1017.0 |
| 20260903003704 | 68 | 198 | 5.0 | 12.0 | 0.00 | 0.00 | 0.00 | 77 | 1017.0 |
| 20260903003205 | 68 | 188 | 6.0 | 9.0 | 0.00 | 0.00 | 0.00 | 77 | 1017.1 |
| 20260903002704 | 69 | 196 | 5.0 | 10.0 | 0.00 | 0.00 | 0.00 | 76 | 1017.1 |
| 20260903002204 | 69 | 179 | 5.0 | 11.0 | 0.00 | 0.00 | 0.00 | 76 | 1017.0 |
| 20260903001704 | 69 | 227 | 5.0 | 11.0 | 0.00 | 0.00 | 0.00 | 76 | 1017.1 |
| 20260903000704 | 69 | 193 | 6.0 | 13.0 | 0.00 | 0.00 | 0.00 | 75 | 1017.3 |
| 20260903000204 | 69 | 175 | 6.0 | 13.0 | 0.00 | 0.00 | 0.00 | 75 | 1017.2 |
| 20260902235704 | 70 | 228 | 6.0 | 11.0 | 0.00 | 0.00 | 0.00 | 75 | 1017.3 |
| 20260902235205 | 70 | 239 | 5.0 | 10.0 | 0.00 | 0.00 | 0.00 | 74 | 1017.2 |
| 20260902233704 | 70 | 212 | 5.0 | 9.0 | 0.00 | 0.00 | 0.00 | 75 | 1017.3 |
| 20260902233204 | 70 | 188 | 5.0 | 10.0 | 0.00 | 0.00 | 0.00 | 75 | 1017.3 |
| 20260902232704 | 70 | 184 | 4.0 | 12.0 | 0.00 | 0.00 | 0.00 | 76 | 1017.4 |
| 20260902232204 | 69 | 218 | 5.0 | 12.0 | 0.00 | 0.00 | 0.00 | 77 | 1017.5 |
| 20260902231704 | 68 | 218 | 6.0 | 12.0 | 0.00 | 0.00 | 0.00 | 78 | 1017.5 |
| 20260902231204 | 68 | 189 | 6.0 | 13.0 | 0.00 | 0.00 | 0.00 | 77 | 1017.6 |
| 20260902230705 | 68 | 210 | 6.0 | 13.0 | 0.00 | 0.00 | 0.00 | 77 | 1017.6 |
| 20260902230205 | 68 | 165 | 6.0 | 15.0 | 0.00 | 0.00 | 0.00 | 78 | 1017.6 |
| 20260902225704 | 68 | 182 | 6.0 | 15.0 | 0.00 | 0.00 | 0.00 | 78 | 1017.8 |
| 20260902225204 | 68 | 186 | 7.0 | 15.0 | 0.00 | 0.00 | 0.00 | 78 | 1017.7 |
| 20260902224704 | 68 | 188 | 6.0 | 13.0 | 0.00 | 0.00 | 0.00 | 77 | 1017.9 |
| 20260902223704 | 68 | 187 | 8.0 | 15.0 | 0.00 | 0.00 | 0.00 | 78 | 1018.0 |
| 20260902223204 | 68 | 209 | 8.0 | 15.0 | 0.00 | 0.00 | 0.00 | 78 | 1018.0 |
| 20260902222704 | 68 | 192 | 7.0 | 15.0 | 0.00 | 0.00 | 0.00 | 77 | 1018.0 |
| 20260902222205 | 68 | 186 | 8.0 | 15.0 | 0.00 | 0.00 | 0.00 | 78 | 1018.0 |
| 20260902221704 | 68 | 207 | 8.0 | 16.0 | 0.00 | 0.00 | 0.00 | 77 | 1018.1 |
| 20260902221204 | 69 | 208 | 7.0 | 16.0 | 0.00 | 0.00 | 0.00 | 78 | 1018.1 |
| 20260902220205 | 69 | 216 | 7.0 | 13.0 | 0.00 | 0.00 | 0.00 | 75 | 1018.2 |
| 20260902215205 | 70 | 197 | 6.0 | 13.0 | 0.00 | 0.00 | 0.00 | 75 | 1018.3 |
| 20260902214704 | 70 | 238 | 6.0 | 12.0 | 0.00 | 0.00 | 0.00 | 75 | 1018.3 |
| 20260902214204 | 70 | 224 | 6.0 | 14.0 | 0.00 | 0.00 | 0.00 | 76 | 1018.2 |
| 20260902213705 | 69 | 213 | 7.0 | 14.0 | 0.00 | 0.00 | 0.00 | 77 | 1018.4 |
| 20260902213204 | 69 | 219 | 8.0 | 14.0 | 0.00 | 0.00 | 0.00 | 77 | 1018.4 |
| 20260902212704 | 69 | 195 | 7.0 | 14.0 | 0.00 | 0.00 | 0.00 | 76 | 1018.5 |
| 20260902212205 | 70 | 194 | 7.0 | 12.0 | 0.00 | 0.00 | 0.00 | 77 | 1018.5 |
| 20260902211704 | 70 | 219 | 7.0 | 12.0 | 0.00 | 0.00 | 0.00 | 76 | 1018.5 |
| 20260902211204 | 70 | 204 | 6.0 | 12.0 | 0.00 | 0.00 | 0.00 | 76 | 1018.5 |
| 20260902210705 | 70 | 205 | 7.0 | 14.0 | 0.00 | 0.00 | 0.00 | 77 | 1018.5 |
| 20260902210204 | 70 | 194 | 7.0 | 14.0 | 0.00 | 0.00 | 0.00 | 76 | 1018.4 |
| 20260902205704 | 70 | 211 | 8.0 | 14.0 | 0.00 | 0.00 | 0.00 | 76 | 1018.5 |
| 20260902205204 | 70 | 193 | 7.0 | 11.0 | 0.00 | 0.00 | 0.00 | 75 | 1018.6 |
| 20260902204705 | 71 | 191 | 6.0 | 11.0 | 0.00 | 0.00 | 0.00 | 73 | 1018.5 |
| 20260902204204 | 71 | 199 | 7.0 | 12.0 | 0.00 | 0.00 | 0.00 | 73 | 1018.4 |
| 20260902203705 | 71 | 186 | 7.0 | 12.0 | 0.00 | 0.00 | 0.00 | 73 | 1018.5 |
| 20260902203204 | 72 | 146 | 5.0 | 12.0 | 0.00 | 0.00 | 0.00 | 72 | 1018.6 |
| 20260902202704 | 71 | 249 | 5.0 | 10.0 | 0.00 | 0.00 | 0.00 | 73 | 1018.6 |
| 20260902202205 | 70 | 259 | 5.0 | 10.0 | 0.00 | 0.00 | 0.00 | 75 | 1018.7 |
| 20260902201704 | 70 | 180 | 5.0 | 11.0 | 0.00 | 0.00 | 0.00 | 74 | 1018.7 |
| 20260902201204 | 70 | 204 | 6.0 | 11.0 | 0.00 | 0.00 | 0.00 | 75 | 1018.6 |
| 20260902200704 | 70 | 185 | 6.0 | 11.0 | 0.00 | 0.00 | 0.00 | 74 | 1018.7 |
| 20260902200204 | 71 | 207 | 6.0 | 10.0 | 0.00 | 0.00 | 0.00 | 73 | 1018.7 |
| 20260902195704 | 71 | 215 | 5.0 | 10.0 | 0.00 | 0.00 | 0.00 | 73 | 1018.7 |
| 20260902194704 | 71 | 279 | 6.0 | 10.0 | 0.00 | 0.00 | 0.00 | 74 | 1018.7 |
| 20260902194205 | 71 | 148 | 6.0 | 10.0 | 0.00 | 0.00 | 0.00 | 72 | 1018.7 |
| 20260902193704 | 71 | 219 | 4.0 | 7.0 | 0.00 | 0.00 | 0.00 | 74 | 1018.8 |
| 20260902193204 | 70 | 203 | 4.0 | 7.0 | 0.00 | 0.00 | 0.00 | 74 | 1018.8 |
| 20260902192704 | 70 | 236 | 4.0 | 7.0 | 0.00 | 0.00 | 0.00 | 75 | 1018.9 |
| 20260902192204 | 70 | 245 | 4.0 | 9.0 | 0.00 | 0.00 | 0.00 | 75 | 1018.8 |
| 20260902191705 | 69 | 262 | 4.0 | 9.0 | 0.00 | 0.00 | 0.00 | 76 | 1018.9 |
| 20260902191204 | 69 | 168 | 4.0 | 8.0 | 0.00 | 0.00 | 0.00 | 76 | 1018.8 |
| 20260902190705 | 69 | 182 | 5.0 | 8.0 | 0.00 | 0.00 | 0.00 | 76 | 1018.9 |
| 20260902190205 | 69 | 191 | 4.0 | 8.0 | 0.00 | 0.00 | 0.00 | 76 | 1018.9 |
| 20260902185704 | 69 | 235 | 4.0 | 7.0 | 0.00 | 0.00 | 0.00 | 76 | 1018.9 |
| 20260902185205 | 69 | 253 | 4.0 | 7.0 | 0.00 | 0.00 | 0.00 | 76 | 1019.0 |
| 20260902184704 | 68 | 166 | 4.0 | 7.0 | 0.00 | 0.00 | 0.00 | 75 | 1018.9 |
| 20260902183704 | 68 | 167 | 2.0 | 5.0 | 0.00 | 0.00 | 0.00 | 75 | 1019.0 |
| 20260902183204 | 67 | 130 | 3.0 | 5.0 | 0.00 | 0.00 | 0.00 | 75 | 1018.9 |
| 20260902182705 | 67 | 206 | 3.0 | 5.0 | 0.00 | 0.00 | 0.00 | 75 | 1018.9 |
| 20260902182204 | 67 | 131 | 3.0 | 5.0 | 0.00 | 0.00 | 0.00 | 76 | 1019.0 |
| 20260902181704 | 66 | 182 | 2.0 | 7.0 | 0.00 | 0.00 | 0.00 | 76 | 1018.9 |
| 20260902180704 | 66 | 134 | 3.0 | 7.0 | 0.00 | 0.00 | 0.00 | 78 | 1018.9 |
| 20260902175704 | 65 | 134 | 3.0 | 7.0 | 0.00 | 0.00 | 0.00 | 79 | 1018.9 |
| 20260902175204 | 65 | 114 | 3.0 | 7.0 | 0.00 | 0.00 | 0.00 | 79 | 1018.9 |
| 20260902174704 | 65 | 132 | 3.0 | 7.0 | 0.00 | 0.00 | 0.00 | 80 | 1019.0 |
| 20260902174205 | 64 | 138 | 3.0 | 5.0 | 0.00 | 0.00 | 0.00 | 80 | 1018.9 |
| 20260902173704 | 64 | 186 | 3.0 | 5.0 | 0.00 | 0.00 | 0.00 | 81 | 1018.9 |
| 20260902173204 | 64 | 128 | 3.0 | 6.0 | 0.00 | 0.00 | 0.00 | 81 | 1018.8 |
| 20260902172704 | 64 | 113 | 3.0 | 6.0 | 0.00 | 0.00 | 0.00 | 81 | 1018.9 |
| 20260902172204 | 64 | 172 | 3.0 | 6.0 | 0.00 | 0.00 | 0.00 | 81 | 1018.9 |
| 20260902171705 | 64 | 200 | 2.0 | 5.0 | 0.00 | 0.00 | 0.00 | 80 | 1019.0 |
| 20260902171204 | 65 | 117 | 3.0 | 5.0 | 0.00 | 0.00 | 0.00 | 81 | 1018.8 |
| 20260902170705 | 65 | 149 | 3.0 | 7.0 | 0.00 | 0.00 | 0.00 | 80 | 1018.8 |
| 20260902170205 | 65 | 152 | 3.0 | 7.0 | 0.00 | 0.00 | 0.00 | 79 | 1018.8 |
| 20260902165704 | 65 | 190 | 3.0 | 7.0 | 0.00 | 0.00 | 0.00 | 80 | 1018.7 |
| 20260902165204 | 65 | 132 | 3.0 | 5.0 | 0.00 | 0.00 | 0.00 | 80 | 1018.8 |
| 20260902164704 | 65 | 144 | 3.0 | 5.0 | 0.00 | 0.00 | 0.00 | 81 | 1018.8 |
| 20260902164204 | 64 | 86 | 3.0 | 5.0 | 0.00 | 0.00 | 0.00 | 82 | 1018.7 |
| 20260902163704 | 64 | 121 | 2.0 | 4.0 | 0.00 | 0.00 | 0.00 | 83 | 1018.7 |
| 20260902163205 | 63 | 125 | 1.0 | 4.0 | 0.00 | 0.00 | 0.00 | 83 | 1018.8 |
| 20260902162704 | 63 | 78 | 2.0 | 4.0 | 0.00 | 0.00 | 0.00 | 84 | 1018.9 |
| 20260902162204 | 63 | 91 | 3.0 | 4.0 | 0.00 | 0.00 | 0.00 | 84 | 1018.9 |
| 20260902161205 | 62 | 108 | 2.0 | 4.0 | 0.00 | 0.00 | 0.00 | 83 | 1018.8 |
| 20260902160204 | 62 | 117 | 2.0 | 4.0 | 0.00 | 0.00 | 0.00 | 83 | 1018.8 |
| 20260902155705 | 62 | 63 | 2.0 | 4.0 | 0.00 | 0.00 | 0.00 | 82 | 1018.8 |
| 20260902155204 | 62 | 61 | 3.0 | 4.0 | 0.00 | 0.00 | 0.00 | 83 | 1018.8 |
| 20260902154704 | 62 | 117 | 2.0 | 4.0 | 0.00 | 0.00 | 0.00 | 83 | 1018.7 |
| 20260902153704 | 60 | 171 | 1.0 | 4.0 | 0.00 | 0.00 | 0.00 | 83 | 1018.6 |
| 20260902153205 | 60 | 171 | 1.0 | 4.0 | 0.00 | 0.00 | 0.00 | 83 | 1018.5 |
| 20260902152704 | 60 | 230 | 2.0 | 5.0 | 0.00 | 0.00 | 0.00 | 83 | 1018.4 |
| 20260902152204 | 59 | 51 | 2.0 | 5.0 | 0.00 | 0.00 | 0.00 | 84 | 1018.4 |
| 20260902151204 | 58 | 42 | 2.0 | 4.0 | 0.00 | 0.00 | 0.00 | 85 | 1018.2 |
| 20260902150204 | 57 | 0 | 1.0 | 3.0 | 0.00 | 0.00 | 0.00 | 86 | 1018.2 |
| 20260902145705 | 56 | 46 | 0.0 | 3.0 | 0.00 | 0.00 | 0.00 | 87 | 1018.2 |
| 20260902145204 | 56 | 23 | 0.0 | 3.0 | 0.00 | 0.00 | 0.00 | 87 | 1018.4 |
| 20260902144705 | 56 | 36 | 0.0 | 3.0 | 0.00 | 0.00 | 0.00 | 87 | 1018.3 |
| 20260902143704 | 55 | 51 | 1.0 | 3.0 | 0.00 | 0.00 | 0.00 | 87 | 1018.3 |
| 20260902143205 | 55 | 30 | 1.0 | 3.0 | 0.00 | 0.00 | 0.00 | 87 | 1018.3 |
| 20260902142705 | 55 | 28 | 1.0 | 3.0 | 0.00 | 0.00 | 0.00 | 87 | 1018.2 |
| 20260902142204 | 55 | 355 | 1.0 | 3.0 | 0.00 | 0.00 | 0.00 | 87 | 1018.1 |
| 20260902141705 | 55 | 27 | 0.0 | 2.0 | 0.00 | 0.00 | 0.00 | 87 | 1018.0 |
| 20260902141205 | 54 | 19 | 0.0 | 0.0 | 0.00 | 0.00 | 0.00 | 86 | 1018.0 |
| 20260902140704 | 54 | 19 | 0.0 | 2.0 | 0.00 | 0.00 | 0.00 | 86 | 1017.9 |
| 20260902140204 | 54 | 19 | 0.0 | 3.0 | 0.00 | 0.00 | 0.00 | 86 | 1017.9 |
| 20260902135705 | 54 | 19 | 1.0 | 4.0 | 0.00 | 0.00 | 0.00 | 86 | 1017.9 |
| 20260902135204 | 55 | 19 | 1.0 | 4.0 | 0.00 | 0.00 | 0.00 | 86 | 1017.8 |
| 20260902134205 | 55 | 342 | 1.0 | 5.0 | 0.00 | 0.00 | 0.00 | 86 | 1017.8 |
| 20260902133705 | 55 | 9 | 2.0 | 5.0 | 0.00 | 0.00 | 0.00 | 86 | 1017.8 |
| 20260902133205 | 55 | 355 | 2.0 | 5.0 | 0.00 | 0.00 | 0.00 | 86 | 1017.7 |
| 20260902132705 | 55 | 42 | 1.0 | 4.0 | 0.00 | 0.00 | 0.00 | 86 | 1017.6 |
| 20260902132205 | 54 | 9 | 1.0 | 5.0 | 0.00 | 0.00 | 0.00 | 86 | 1017.6 |
| 20260902131704 | 55 | 341 | 2.0 | 5.0 | 0.00 | 0.00 | 0.00 | 86 | 1017.6 |
| 20260902131205 | 54 | 16 | 2.0 | 5.0 | 0.00 | 0.00 | 0.00 | 86 | 1017.7 |
| 20260902130704 | 54 | 42 | 2.0 | 5.0 | 0.00 | 0.00 | 0.00 | 86 | 1017.8 |
| 20260902130204 | 54 | 9 | 2.0 | 5.0 | 0.00 | 0.00 | 0.00 | 87 | 1017.7 |
| 20260902125705 | 54 | 0 | 2.0 | 4.0 | 0.00 | 0.00 | 0.00 | 87 | 1017.6 |
| 20260902125204 | 54 | 5 | 2.0 | 5.0 | 0.00 | 0.00 | 0.00 | 87 | 1017.7 |
| 20260902124705 | 54 | 5 | 2.0 | 5.0 | 0.00 | 0.00 | 0.00 | 87 | 1017.7 |
| 20260902124205 | 54 | 5 | 2.0 | 5.0 | 0.00 | 0.00 | 0.00 | 86 | 1017.8 |
| 20260902123204 | 54 | 346 | 2.0 | 4.0 | 0.00 | 0.00 | 0.00 | 86 | 1017.7 |
| 20260902122704 | 54 | 28 | 1.0 | 3.0 | 0.00 | 0.00 | 0.00 | 86 | 1017.7 |
| 20260902122205 | 54 | 14 | 0.0 | 3.0 | 0.00 | 0.00 | 0.00 | 86 | 1017.7 |
| 20260902120704 | 54 | 341 | 1.0 | 3.0 | 0.00 | 0.00 | 0.00 | 86 | 1017.5 |
| 20260902120204 | 54 | 9 | 1.0 | 3.0 | 0.00 | 0.00 | 0.00 | 86 | 1017.6 |
| 20260902115704 | 54 | 15 | 1.0 | 3.0 | 0.00 | 0.00 | 0.00 | 86 | 1017.6 |
| 20260902114204 | 54 | 349 | 0.0 | 0.0 | 0.00 | 0.00 | 0.00 | 86 | 1017.7 |
| 20260902113705 | 54 | 348 | 0.0 | 0.0 | 0.00 | 0.00 | 0.00 | 86 | 1017.8 |
| 20260902113205 | 55 | 348 | 0.0 | 0.0 | 0.00 | 0.00 | 0.00 | 86 | 1017.9 |
| 20260902112704 | 55 | 346 | 0.0 | 0.0 | 0.00 | 0.00 | 0.00 | 86 | 1017.8 |
| 20260902112205 | 55 | 346 | 0.0 | 0.0 | 0.00 | 0.00 | 0.00 | 86 | 1017.8 |
| 20260902111705 | 55 | 11 | 0.0 | 0.0 | 0.00 | 0.00 | 0.00 | 86 | 1017.8 |
| 20260902111205 | 55 | 16 | 0.0 | 0.0 | 0.00 | 0.00 | 0.00 | 86 | 1017.8 |
| 20260902110204 | 55 | 28 | 0.0 | 0.0 | 0.00 | 0.00 | 0.00 | 86 | 1017.8 |
| 20260902105705 | 55 | 39 | 0.0 | 3.0 | 0.00 | 0.00 | 0.00 | 86 | 1017.7 |
| 20260902105205 | 55 | 42 | 0.0 | 3.0 | 0.00 | 0.00 | 0.00 | 85 | 1017.7 |
| 20260902104204 | 55 | 12 | 1.0 | 4.0 | 0.00 | 0.00 | 0.00 | 85 | 1017.7 |
| 20260902103704 | 55 | 46 | 2.0 | 5.0 | 0.00 | 0.00 | 0.00 | 85 | 1017.7 |
| 20260902102205 | 55 | 33 | 2.0 | 4.0 | 0.00 | 0.00 | 0.00 | 85 | 1017.6 |
| 20260902101704 | 55 | 51 | 1.0 | 3.0 | 0.00 | 0.00 | 0.00 | 85 | 1017.7 |
| 20260902101204 | 55 | 32 | 0.0 | 3.0 | 0.00 | 0.00 | 0.00 | 85 | 1017.7 |
| 20260902100704 | 55 | 9 | 0.0 | 3.0 | 0.00 | 0.00 | 0.00 | 85 | 1017.6 |
| 20260902100204 | 55 | 21 | 0.0 | 3.0 | 0.00 | 0.00 | 0.00 | 84 | 1017.6 |
| 20260902095704 | 55 | 11 | 0.0 | 2.0 | 0.00 | 0.00 | 0.00 | 85 | 1017.6 |
| 20260902095205 | 55 | 19 | 0.0 | 3.0 | 0.00 | 0.00 | 0.00 | 85 | 1017.7 |
| 20260902094704 | 55 | 19 | 1.0 | 5.0 | 0.00 | 0.00 | 0.00 | 85 | 1017.7 |
| 20260902093705 | 55 | 22 | 2.0 | 5.0 | 0.00 | 0.00 | 0.00 | 85 | 1017.7 |
| 20260902092705 | 56 | 25 | 2.0 | 5.0 | 0.00 | 0.00 | 0.00 | 86 | 1017.7 |
| 20260902092204 | 56 | 5 | 3.0 | 5.0 | 0.00 | 0.00 | 0.00 | 86 | 1017.6 |
| 20260902091704 | 56 | 19 | 3.0 | 5.0 | 0.00 | 0.00 | 0.00 | 86 | 1017.6 |
| 20260902090704 | 57 | 28 | 2.0 | 5.0 | 0.00 | 0.00 | 0.00 | 87 | 1017.6 |
| 20260902090204 | 57 | 342 | 2.0 | 5.0 | 0.00 | 0.00 | 0.00 | 87 | 1017.7 |
| 20260902085704 | 57 | 24 | 2.0 | 5.0 | 0.00 | 0.00 | 0.00 | 86 | 1017.8 |
| 20260902085204 | 58 | 26 | 2.0 | 5.0 | 0.00 | 0.00 | 0.00 | 86 | 1017.9 |
| 20260902084704 | 58 | 19 | 2.0 | 5.0 | 0.00 | 0.00 | 0.00 | 86 | 1017.9 |
| 20260902084204 | 58 | 18 | 2.0 | 5.0 | 0.00 | 0.00 | 0.00 | 86 | 1017.9 |
| 20260902083704 | 58 | 351 | 2.0 | 4.0 | 0.00 | 0.00 | 0.00 | 85 | 1017.9 |
| 20260902083205 | 58 | 19 | 2.0 | 3.0 | 0.00 | 0.00 | 0.00 | 85 | 1018.0 |
| 20260902082704 | 58 | 340 | 2.0 | 3.0 | 0.00 | 0.00 | 0.00 | 85 | 1018.0 |
| 20260902081705 | 58 | 18 | 1.0 | 3.0 | 0.00 | 0.00 | 0.00 | 84 | 1017.9 |
| 20260902081204 | 58 | 17 | 1.0 | 3.0 | 0.00 | 0.00 | 0.00 | 84 | 1017.9 |
| 20260902080705 | 58 | 9 | 1.0 | 3.0 | 0.00 | 0.00 | 0.00 | 84 | 1017.8 |
| 20260902075704 | 58 | 5 | 0.0 | 0.0 | 0.00 | 0.00 | 0.00 | 84 | 1017.9 |
| 20260902075205 | 58 | 5 | 0.0 | 2.0 | 0.00 | 0.00 | 0.00 | 83 | 1017.8 |
| 20260902074704 | 58 | 5 | 0.0 | 3.0 | 0.00 | 0.00 | 0.00 | 83 | 1017.8 |
| 20260902074204 | 58 | 5 | 1.0 | 3.0 | 0.00 | 0.00 | 0.00 | 83 | 1017.9 |
| 20260902073204 | 58 | 0 | 1.0 | 3.0 | 0.00 | 0.00 | 0.00 | 83 | 1017.9 |
| 20260902072704 | 58 | 18 | 0.0 | 2.0 | 0.00 | 0.00 | 0.00 | 82 | 1017.9 |
| 20260902072204 | 58 | 24 | 0.0 | 2.0 | 0.00 | 0.00 | 0.00 | 82 | 1017.8 |
| 20260902071704 | 58 | 46 | 0.0 | 2.0 | 0.00 | 0.00 | 0.00 | 82 | 1017.8 |
| 20260902071204 | 59 | 5 | 0.0 | 0.0 | 0.00 | 0.00 | 0.00 | 82 | 1017.8 |
| 20260902070705 | 59 | 27 | 0.0 | 0.0 | 0.00 | 0.00 | 0.00 | 81 | 1017.8 |
| 20260902070205 | 59 | 19 | 0.0 | 0.0 | 0.00 | 0.00 | 0.00 | 81 | 1017.7 |
| 20260902065705 | 59 | 19 | 0.0 | 0.0 | 0.00 | 0.00 | 0.00 | 81 | 1017.7 |
| 20260902065205 | 59 | 5 | 0.0 | 0.0 | 0.00 | 0.00 | 0.00 | 81 | 1017.7 |
| 20260902064704 | 59 | 45 | 0.0 | 0.0 | 0.00 | 0.00 | 0.00 | 80 | 1017.7 |
| 20260902064204 | 59 | 45 | 0.0 | 0.0 | 0.00 | 0.00 | 0.00 | 80 | 1017.7 |
| 20260902063704 | 59 | 45 | 0.0 | 0.0 | 0.00 | 0.00 | 0.00 | 80 | 1017.6 |
| 20260902063205 | 59 | 44 | 0.0 | 0.0 | 0.00 | 0.00 | 0.00 | 80 | 1017.6 |
| 20260902062204 | 59 | 44 | 0.0 | 0.0 | 0.00 | 0.00 | 0.00 | 79 | 1017.7 |
| 20260902061704 | 59 | 44 | 0.0 | 0.0 | 0.00 | 0.00 | 0.00 | 79 | 1017.6 |
| 20260902060704 | 59 | 44 | 0.0 | 0.0 | 0.00 | 0.00 | 0.00 | 79 | 1017.6 |
| 20260902060204 | 59 | 44 | 0.0 | 0.0 | 0.00 | 0.00 | 0.00 | 79 | 1017.6 |
| 20260902055704 | 60 | 44 | 0.0 | 0.0 | 0.00 | 0.00 | 0.00 | 79 | 1017.7 |
| 20260902054705 | 60 | 44 | 0.0 | 0.0 | 0.00 | 0.00 | 0.00 | 78 | 1017.8 |
| 20260902054205 | 60 | 45 | 0.0 | 0.0 | 0.00 | 0.00 | 0.00 | 78 | 1017.8 |
| 20260902053704 | 60 | 43 | 0.0 | 0.0 | 0.00 | 0.00 | 0.00 | 78 | 1018.0 |
| 20260902053205 | 60 | 43 | 0.0 | 0.0 | 0.00 | 0.00 | 0.00 | 78 | 1017.9 |
| 20260902052704 | 60 | 46 | 0.0 | 0.0 | 0.00 | 0.00 | 0.00 | 78 | 1018.0 |
| 20260902052205 | 60 | 53 | 0.0 | 0.0 | 0.00 | 0.00 | 0.00 | 78 | 1018.0 |
| 20260902051704 | 61 | 53 | 0.0 | 0.0 | 0.00 | 0.00 | 0.00 | 78 | 1018.0 |
| 20260902050704 | 61 | 53 | 0.0 | 2.0 | 0.00 | 0.00 | 0.00 | 78 | 1017.9 |
| 20260902045705 | 61 | 53 | 0.0 | 3.0 | 0.00 | 0.00 | 0.00 | 78 | 1017.9 |
| 20260902045204 | 61 | 53 | 0.0 | 2.0 | 0.00 | 0.00 | 0.00 | 78 | 1017.9 |
| 20260902044705 | 61 | 28 | 0.0 | 0.0 | 0.00 | 0.00 | 0.00 | 77 | 1017.9 |
| 20260902044204 | 61 | 21 | 0.0 | 2.0 | 0.00 | 0.00 | 0.00 | 77 | 1017.9 |
| 20260902043704 | 61 | 44 | 0.0 | 2.0 | 0.00 | 0.00 | 0.00 | 77 | 1017.9 |
| 20260902043204 | 61 | 44 | 0.0 | 3.0 | 0.00 | 0.00 | 0.00 | 77 | 1017.9 |
| 20260902042704 | 61 | 26 | 0.0 | 3.0 | 0.00 | 0.00 | 0.00 | 77 | 1017.8 |
| 20260902042205 | 62 | 26 | 0.0 | 3.0 | 0.00 | 0.00 | 0.00 | 77 | 1017.8 |
| 20260902041704 | 62 | 26 | 0.0 | 0.0 | 0.00 | 0.00 | 0.00 | 78 | 1017.8 |
| 20260902041204 | 62 | 274 | 0.0 | 0.0 | 0.00 | 0.00 | 0.00 | 78 | 1017.8 |
| 20260902040704 | 62 | 274 | 0.0 | 3.0 | 0.00 | 0.00 | 0.00 | 78 | 1017.7 |
| 20260902040204 | 62 | 274 | 0.0 | 3.0 | 0.00 | 0.00 | 0.00 | 78 | 1017.6 |
| 20260902035204 | 62 | 274 | 2.0 | 5.0 | 0.00 | 0.00 | 0.00 | 78 | 1017.4 |
| 20260902034704 | 62 | 254 | 2.0 | 5.0 | 0.00 | 0.00 | 0.00 | 78 | 1017.4 |
| 20260902034204 | 63 | 249 | 2.0 | 5.0 | 0.00 | 0.00 | 0.00 | 78 | 1017.3 |
| 20260902033704 | 63 | 235 | 1.0 | 5.0 | 0.00 | 0.00 | 0.00 | 78 | 1017.2 |
| 20260902033204 | 63 | 248 | 1.0 | 5.0 | 0.00 | 0.00 | 0.00 | 78 | 1017.2 |
| 20260902032705 | 63 | 249 | 2.0 | 5.0 | 0.00 | 0.00 | 0.00 | 78 | 1017.2 |
| 20260902032205 | 63 | 221 | 2.0 | 5.0 | 0.00 | 0.00 | 0.00 | 78 | 1017.1 |
| 20260902031704 | 63 | 250 | 2.0 | 5.0 | 0.00 | 0.00 | 0.00 | 78 | 1017.1 |
| 20260902031205 | 63 | 248 | 3.0 | 6.0 | 0.00 | 0.00 | 0.00 | 78 | 1017.1 |
| 20260902030704 | 63 | 259 | 3.0 | 7.0 | 0.00 | 0.00 | 0.00 | 78 | 1017.1 |
| 20260902030204 | 64 | 251 | 3.0 | 7.0 | 0.00 | 0.00 | 0.00 | 77 | 1016.9 |
| 20260902025204 | 64 | 254 | 3.0 | 7.0 | 0.00 | 0.00 | 0.00 | 77 | 1016.9 |
| 20260902024704 | 64 | 236 | 3.0 | 7.0 | 0.00 | 0.00 | 0.00 | 77 | 1016.9 |
| 20260902024204 | 64 | 245 | 3.0 | 10.0 | 0.00 | 0.00 | 0.00 | 77 | 1016.8 |
| 20260902023704 | 64 | 273 | 4.0 | 11.0 | 0.00 | 0.00 | 0.00 | 76 | 1016.7 |
| 20260902023204 | 65 | 247 | 5.0 | 11.0 | 0.00 | 0.00 | 0.00 | 76 | 1016.7 |
| 20260902022705 | 65 | 234 | 5.0 | 11.0 | 0.00 | 0.00 | 0.00 | 76 | 1016.8 |
| 20260902021704 | 65 | 229 | 6.0 | 12.0 | 0.00 | 0.00 | 0.00 | 75 | 1016.6 |
| 20260902021204 | 66 | 255 | 7.0 | 12.0 | 0.00 | 0.00 | 0.00 | 74 | 1016.6 |
| 20260902020704 | 66 | 238 | 7.0 | 12.0 | 0.00 | 0.00 | 0.00 | 73 | 1016.7 |
| 20260902020205 | 66 | 234 | 7.0 | 11.0 | 0.00 | 0.00 | 0.00 | 72 | 1016.6 |
| 20260902015704 | 66 | 274 | 6.0 | 11.0 | 0.00 | 0.00 | 0.00 | 71 | 1016.5 |
| 20260902014204 | 67 | 263 | 7.0 | 13.0 | 0.00 | 0.00 | 0.00 | 72 | 1016.5 |
| 20260902013204 | 67 | 279 | 7.0 | 15.0 | 0.00 | 0.00 | 0.00 | 73 | 1016.5 |
| 20260902012705 | 67 | 221 | 7.0 | 15.0 | 0.00 | 0.00 | 0.00 | 73 | 1016.5 |
| 20260902012205 | 67 | 215 | 6.0 | 14.0 | 0.00 | 0.00 | 0.00 | 74 | 1016.5 |
| 20260902011705 | 67 | 280 | 6.0 | 14.0 | 0.00 | 0.00 | 0.00 | 75 | 1016.5 |
| 20260902011205 | 67 | 221 | 7.0 | 14.0 | 0.00 | 0.00 | 0.00 | 75 | 1016.4 |
| 20260902010705 | 67 | 236 | 6.0 | 14.0 | 0.00 | 0.00 | 0.00 | 75 | 1016.4 |
| 20260902005704 | 67 | 254 | 7.0 | 17.0 | 0.00 | 0.00 | 0.00 | 74 | 1016.3 |